User: anonymous   Login
Location: Caltech
(34.1382°N, 118.1253°W)
Time: 11:17:43
(UTC-07:00)
Language:

Iridium 49 - Orbit

View from above orbital plane
View from above orbital plane
View from above satellite
View from above satellite

Ground track
Ground track

The orbit data is extracted from the following two-line orbital elements,

1 25108U 97082E   16180.18982807  .00000092  00000-0  25669-4 0  9994
2 25108  86.3954  43.4154 0002311  86.0199  30.6569 14.34217450969637
Epoch (UTC): 28 June 2016 04:33:21
Eccentricity: 0.0002311
inclination: 86.3954°
perigee height: 776 km
apogee height: 779 km
right ascension of ascending node: 43.4154°
argument of perigee: 86.0199°
revolutions per day: 14.34217450
mean anomaly at epoch: 30.6569°
orbit number at epoch: 96963

The dashed part of the orbit path shows where the satellite is in the earth's shadow,  

DLR